BAW7695 LEMD-EGLC

Flight info

Callsign BAW7695
Flight time N/A
Altitude 38000
Route ZMR DCT VETAN DCT OMESI DCT VES DCT LOTEE DCT INCEF DCT OZNOH DCT ARTIV DCT DIKRO UZ273 ANGLO/N0447F370 UZ273 NEVIL
Aircraft A319/M-SDE3FGHIRWY/LB1

Departure

Time N/A
Airport Adolfo Suárez Madrid–Barajas Airport (LEMD)

Arrival

Time 2026-04-29 04:09
Airport London City Airport (EGLC)
Time Latitude Longitude Altitude Speed Heading
2026-04-29 02:46 45.04960 -5.44258 37935 ft 472 kts 34°
2026-04-29 02:46 45.10293 -5.38826 37951 ft 472 kts 34°
2026-04-29 02:47 45.15617 -5.33385 37938 ft 473 kts 34°
2026-04-29 02:47 45.20952 -5.27933 37940 ft 473 kts 34°
2026-04-29 02:48 45.26280 -5.22468 37336 ft 473 kts 34°
2026-04-29 02:48 45.28949 -5.19726 36995 ft 474 kts 33°
2026-04-29 02:48 45.31623 -5.16973 36922 ft 476 kts 33°
2026-04-29 02:49 45.36998 -5.11427 36941 ft 478 kts 34°
2026-04-29 02:49 45.42393 -5.05850 36942 ft 479 kts 34°
2026-04-29 02:50 45.47785 -5.00271 36963 ft 480 kts 34°
2026-04-29 02:50 45.53288 -4.94921 36940 ft 477 kts 26°
2026-04-29 02:51 45.59121 -4.90397 36950 ft 477 kts 26°
2026-04-29 02:51 45.64943 -4.85851 36943 ft 477 kts 26°
2026-04-29 02:52 45.70767 -4.81290 36970 ft 477 kts 27°
2026-04-29 02:52 45.76574 -4.76725 36970 ft 476 kts 27°
2026-04-29 02:53 45.82384 -4.72155 36950 ft 476 kts 26°
2026-04-29 02:53 45.88190 -4.67588 36959 ft 476 kts 27°
2026-04-29 02:54 45.93960 -4.63035 36972 ft 476 kts 27°
2026-04-29 02:54 45.99760 -4.58442 36961 ft 476 kts 27°
2026-04-29 02:55 46.05560 -4.53840 36957 ft 476 kts 27°
2026-04-29 02:55 46.11365 -4.49222 36962 ft 476 kts 27°
2026-04-29 02:56 46.17159 -4.44605 36959 ft 476 kts 27°
2026-04-29 02:56 46.22954 -4.39962 36957 ft 476 kts 27°
2026-04-29 02:57 46.28740 -4.35322 36985 ft 476 kts 27°
2026-04-29 02:57 46.34534 -4.30667 36975 ft 476 kts 27°
2026-04-29 02:58 46.40314 -4.26003 36966 ft 476 kts 27°
2026-04-29 02:58 46.46089 -4.21341 36969 ft 475 kts 28°
2026-04-29 02:59 46.51861 -4.16673 36978 ft 475 kts 27°
2026-04-29 02:59 46.56662 -4.12778 36973 ft 475 kts 28°
2026-04-29 03:00 46.62386 -4.08122 36972 ft 468 kts 27°
2026-04-29 03:00 46.68067 -4.03501 36981 ft 469 kts 28°
2026-04-29 03:01 46.73757 -3.98855 36983 ft 469 kts 28°
2026-04-29 03:01 46.79439 -3.94198 36984 ft 468 kts 28°
2026-04-29 03:02 46.85120 -3.89519 36985 ft 470 kts 28°
2026-04-29 03:02 46.90816 -3.84826 36999 ft 469 kts 29°
2026-04-29 03:03 46.96501 -3.80139 37000 ft 469 kts 28°
2026-04-29 03:03 47.02180 -3.75449 36992 ft 468 kts 28°
2026-04-29 03:04 47.07846 -3.70753 36992 ft 468 kts 28°
2026-04-29 03:04 47.13517 -3.66038 36986 ft 468 kts 30°
2026-04-29 03:05 47.19183 -3.61313 36989 ft 469 kts 30°
2026-04-29 03:05 47.24854 -3.56573 37000 ft 469 kts 30°
2026-04-29 03:06 47.30527 -3.51825 36999 ft 469 kts 30°
2026-04-29 03:06 47.36193 -3.47070 37014 ft 468 kts 30°
2026-04-29 03:07 47.41849 -3.42309 37020 ft 467 kts 30°
2026-04-29 03:07 47.47493 -3.37546 37009 ft 467 kts 30°
2026-04-29 03:08 47.53133 -3.32778 36996 ft 467 kts 30°
2026-04-29 03:08 47.58777 -3.28001 37010 ft 466 kts 31°
2026-04-29 03:09 47.64403 -3.23218 37015 ft 466 kts 31°
2026-04-29 03:09 47.70014 -3.18421 37019 ft 465 kts 31°
2026-04-29 03:10 47.75632 -3.13615 36990 ft 467 kts 31°
2026-04-29 03:10 47.81278 -3.08781 37001 ft 469 kts 31°
2026-04-29 03:11 47.86941 -3.03922 37007 ft 470 kts 31°
2026-04-29 03:11 47.92606 -2.99056 37010 ft 471 kts 31°
2026-04-29 03:12 47.98279 -2.94159 37008 ft 472 kts 31°
2026-04-29 03:12 48.03960 -2.89230 37023 ft 472 kts 31°
2026-04-29 03:13 48.09602 -2.84323 37027 ft 472 kts 31°
2026-04-29 03:13 48.15325 -2.79357 37038 ft 473 kts 31°
2026-04-29 03:14 48.21020 -2.74407 37051 ft 473 kts 31°
2026-04-29 03:14 48.26692 -2.69455 37060 ft 472 kts 31°
2026-04-29 03:15 48.32363 -2.64477 37068 ft 471 kts 31°
2026-04-29 03:15 48.37984 -2.59532 37071 ft 471 kts 31°
2026-04-29 03:16 48.43625 -2.54549 37056 ft 470 kts 33°
2026-04-29 03:16 48.48603 -2.48276 37067 ft 465 kts 48°
2026-04-29 03:17 48.53039 -2.41176 37049 ft 465 kts 48°
2026-04-29 03:17 48.57813 -2.34587 37042 ft 467 kts 40°
2026-04-29 03:18 48.62903 -2.28487 37037 ft 467 kts 40°
2026-04-29 03:18 48.67987 -2.22383 37036 ft 467 kts 40°
2026-04-29 03:19 48.73071 -2.16268 37021 ft 467 kts 41°
2026-04-29 03:19 48.78160 -2.10136 37020 ft 468 kts 41°
2026-04-29 03:20 48.83261 -2.03977 37032 ft 469 kts 40°
2026-04-29 03:20 48.88337 -1.97835 37064 ft 462 kts 41°
2026-04-29 03:21 48.93327 -1.91782 37083 ft 459 kts 40°
2026-04-29 03:21 48.98326 -1.85669 37080 ft 462 kts 41°
2026-04-29 03:22 49.03336 -1.79529 37075 ft 462 kts 41°
2026-04-29 03:22 49.08142 -1.73030 37078 ft 461 kts 45°
2026-04-29 03:23 49.12716 -1.66232 37103 ft 458 kts 46°
2026-04-29 03:23 49.17275 -1.59441 37111 ft 457 kts 46°
2026-04-29 03:24 49.21875 -1.52769 37108 ft 456 kts 45°
2026-04-29 03:24 49.26487 -1.46125 37112 ft 455 kts 45°
2026-04-29 03:25 49.31050 -1.39507 37113 ft 454 kts 46°
2026-04-29 03:25 49.35607 -1.32829 37092 ft 454 kts 45°
2026-04-29 03:26 49.40178 -1.26124 37087 ft 455 kts 45°
2026-04-29 03:26 49.44766 -1.19379 37086 ft 457 kts 45°
2026-04-29 03:27 49.49361 -1.12611 37090 ft 458 kts 46°
2026-04-29 03:27 49.53964 -1.05835 37101 ft 458 kts 46°
2026-04-29 03:28 49.58545 -0.99063 37091 ft 456 kts 47°
2026-04-29 03:28 49.60826 -0.95679 36823 ft 454 kts 48°
2026-04-29 03:28 49.63097 -0.92304 36572 ft 454 kts 47°
2026-04-29 03:28 49.65372 -0.88917 36198 ft 454 kts 46°
2026-04-29 03:29 49.67655 -0.85512 35377 ft 460 kts 46°
2026-04-29 03:29 49.69970 -0.82065 34550 ft 465 kts 47°
2026-04-29 03:29 49.72309 -0.78575 33612 ft 471 kts 47°
2026-04-29 03:29 49.74682 -0.75029 32520 ft 475 kts 48°
2026-04-29 03:30 49.77040 -0.71510 31460 ft 468 kts 48°
2026-04-29 03:30 49.79367 -0.68035 30282 ft 462 kts 48°
2026-04-29 03:30 49.81654 -0.64605 29139 ft 452 kts 48°
2026-04-29 03:30 49.83891 -0.61244 27961 ft 444 kts 48°
2026-04-29 03:31 49.88326 -0.54537 26142 ft 440 kts 49°
2026-04-29 03:31 49.90500 -0.51240 25406 ft 435 kts 48°
2026-04-29 03:31 49.92653 -0.47984 24666 ft 431 kts 49°
2026-04-29 03:32 49.94794 -0.44748 23933 ft 427 kts 49°
2026-04-29 03:32 49.96909 -0.41548 23128 ft 423 kts 49°
2026-04-29 03:32 49.98998 -0.38390 22435 ft 415 kts 49°
2026-04-29 03:32 50.01160 -0.35457 21837 ft 412 kts 43°
2026-04-29 03:33 50.03430 -0.32710 21623 ft 414 kts 42°
2026-04-29 03:33 50.05689 -0.29960 21284 ft 412 kts 43°
2026-04-29 03:33 50.07914 -0.27245 20968 ft 410 kts 43°
2026-04-29 03:33 50.10153 -0.24510 20637 ft 409 kts 43°
2026-04-29 03:34 50.12382 -0.21782 20310 ft 406 kts 42°
2026-04-29 03:34 50.14484 -0.18890 19983 ft 400 kts 51°
2026-04-29 03:34 50.16208 -0.15548 19681 ft 392 kts 60°
2026-04-29 03:34 50.17650 -0.11946 19368 ft 390 kts 62°
2026-04-29 03:35 50.19069 -0.08358 19059 ft 388 kts 63°
2026-04-29 03:35 50.20480 -0.04788 18753 ft 386 kts 62°
2026-04-29 03:35 50.21888 -0.01229 18442 ft 384 kts 61°
2026-04-29 03:35 50.23288 0.02308 18103 ft 383 kts 62°
2026-04-29 03:36 50.24682 0.05849 17808 ft 382 kts 62°
2026-04-29 03:36 50.26071 0.09377 17501 ft 380 kts 62°
2026-04-29 03:36 50.27453 0.12884 17201 ft 379 kts 61°
2026-04-29 03:36 50.28829 0.16378 16893 ft 376 kts 62°
2026-04-29 03:37 50.30201 0.19860 16597 ft 376 kts 62°
2026-04-29 03:37 50.31568 0.23336 16298 ft 374 kts 62°
2026-04-29 03:37 50.32928 0.26793 16020 ft 373 kts 61°
2026-04-29 03:37 50.34281 0.30252 15777 ft 371 kts 62°
2026-04-29 03:38 50.35625 0.33686 15526 ft 369 kts 62°
2026-04-29 03:38 50.36963 0.37123 15281 ft 369 kts 62°
2026-04-29 03:38 50.38291 0.40535 15029 ft 366 kts 62°
2026-04-29 03:38 50.39619 0.43946 14790 ft 366 kts 62°
2026-04-29 03:39 50.40929 0.47319 14316 ft 359 kts 62°
2026-04-29 03:39 50.42235 0.50624 13932 ft 359 kts 61°
2026-04-29 03:39 50.43590 0.53931 13668 ft 360 kts 60°
2026-04-29 03:39 50.44955 0.57216 13409 ft 359 kts 59°
2026-04-29 03:40 50.46320 0.60492 13137 ft 358 kts 60°
2026-04-29 03:40 50.47680 0.63749 12874 ft 355 kts 60°
2026-04-29 03:40 50.49026 0.67001 12619 ft 354 kts 60°
2026-04-29 03:40 50.50358 0.70233 12355 ft 352 kts 60°
2026-04-29 03:41 50.51685 0.73459 12099 ft 352 kts 60°
2026-04-29 03:41 50.53001 0.76676 11843 ft 348 kts 60°
2026-04-29 03:41 50.54306 0.79876 11598 ft 347 kts 60°
2026-04-29 03:41 50.55611 0.83075 11349 ft 346 kts 60°
2026-04-29 03:42 50.56901 0.86237 11100 ft 344 kts 60°
2026-04-29 03:42 50.58192 0.89412 10853 ft 343 kts 60°
2026-04-29 03:42 50.59635 0.92402 10606 ft 344 kts 50°
2026-04-29 03:42 50.61424 0.94918 10369 ft 349 kts 39°
2026-04-29 03:43 50.63419 0.97089 10135 ft 343 kts 38°
2026-04-29 03:43 50.65304 0.99111 9981 ft 314 kts 39°
2026-04-29 03:43 50.67037 1.00970 9847 ft 288 kts 39°
2026-04-29 03:43 50.68649 1.02710 9712 ft 276 kts 40°
2026-04-29 03:44 50.70223 1.04430 9595 ft 275 kts 39°
2026-04-29 03:44 50.71784 1.06146 9458 ft 272 kts 39°
2026-04-29 03:44 50.72812 1.07277 9369 ft 271 kts 41°
2026-04-29 03:44 50.74860 1.09530 9191 ft 272 kts 39°
2026-04-29 03:45 50.76410 1.11229 9166 ft 271 kts 41°
2026-04-29 03:45 50.77950 1.12911 9196 ft 264 kts 39°
2026-04-29 03:45 50.79424 1.14520 9212 ft 253 kts 39°
2026-04-29 03:45 50.80855 1.16090 9216 ft 249 kts 40°
2026-04-29 03:46 50.81814 1.17142 9208 ft 247 kts 39°
2026-04-29 03:46 50.83226 1.18695 9215 ft 248 kts 39°
2026-04-29 03:46 50.84649 1.20263 9219 ft 249 kts 40°
2026-04-29 03:46 50.86067 1.21823 9220 ft 247 kts 41°
2026-04-29 03:47 50.87534 1.23258 9209 ft 251 kts 26°
2026-04-29 03:47 50.89230 1.23676 9218 ft 248 kts
2026-04-29 03:47 50.90884 1.22840 9220 ft 255 kts 333°
2026-04-29 03:47 50.92192 1.20890 9219 ft 263 kts 313°
2026-04-29 03:48 50.93358 1.18656 9225 ft 262 kts 312°
2026-04-29 03:48 50.94509 1.16434 9217 ft 262 kts 313°
2026-04-29 03:48 50.95668 1.14195 9220 ft 263 kts 313°
2026-04-29 03:48 50.96825 1.11961 9221 ft 261 kts 312°
2026-04-29 03:49 50.97962 1.09769 9220 ft 260 kts 313°
2026-04-29 03:49 50.99116 1.07547 9221 ft 262 kts 313°
2026-04-29 03:49 51.00279 1.05307 9221 ft 262 kts 312°
2026-04-29 03:49 51.01437 1.03079 9215 ft 261 kts 312°
2026-04-29 03:50 51.02594 1.00859 9217 ft 260 kts 312°
2026-04-29 03:50 51.03742 0.98648 9218 ft 259 kts 312°
2026-04-29 03:50 51.04886 0.96440 9220 ft 259 kts 312°
2026-04-29 03:50 51.06029 0.94226 9228 ft 261 kts 312°
2026-04-29 03:51 51.07176 0.91999 9274 ft 260 kts 312°
2026-04-29 03:51 51.08322 0.89778 9289 ft 260 kts 312°
2026-04-29 03:51 51.09470 0.87552 9305 ft 260 kts 312°
2026-04-29 03:51 51.10615 0.85329 9321 ft 260 kts 312°
2026-04-29 03:52 51.11762 0.83100 9331 ft 260 kts 312°
2026-04-29 03:52 51.12908 0.80868 9351 ft 260 kts 312°
2026-04-29 03:52 51.14052 0.78638 9363 ft 260 kts 312°
2026-04-29 03:52 51.15197 0.76406 9379 ft 260 kts 312°
2026-04-29 03:53 51.16339 0.74174 9401 ft 260 kts 312°
2026-04-29 03:53 51.17483 0.71939 9410 ft 260 kts 312°
2026-04-29 03:53 51.18615 0.69723 9417 ft 253 kts 312°
2026-04-29 03:53 51.19696 0.67602 9459 ft 237 kts 312°
2026-04-29 03:54 51.20711 0.65612 9387 ft 229 kts 313°
2026-04-29 03:54 51.21710 0.63662 9188 ft 225 kts 313°
2026-04-29 03:54 51.22696 0.61734 9139 ft 225 kts 313°
2026-04-29 03:54 51.23684 0.59803 9093 ft 225 kts 313°
2026-04-29 03:55 51.24673 0.57870 9050 ft 224 kts 313°
2026-04-29 03:55 51.25658 0.55937 8999 ft 224 kts 313°
2026-04-29 03:55 51.26639 0.54005 8950 ft 224 kts 313°
2026-04-29 03:55 51.27619 0.52075 8856 ft 225 kts 313°
2026-04-29 03:56 51.28598 0.50138 8656 ft 223 kts 312°
2026-04-29 03:56 51.29567 0.48220 8595 ft 222 kts 312°
2026-04-29 03:56 51.30539 0.46295 8531 ft 222 kts 312°
2026-04-29 03:56 51.31510 0.44380 8479 ft 222 kts 312°
2026-04-29 03:57 51.32480 0.42465 8421 ft 222 kts 312°
2026-04-29 03:57 51.33449 0.40551 8191 ft 221 kts 312°
2026-04-29 03:57 51.34413 0.38644 8139 ft 220 kts 312°
2026-04-29 03:57 51.35379 0.36739 8092 ft 220 kts 312°
2026-04-29 03:58 51.36342 0.34834 8045 ft 220 kts 312°
2026-04-29 03:58 51.37298 0.32940 7992 ft 216 kts 312°
2026-04-29 03:58 51.38207 0.31129 7943 ft 202 kts 312°
2026-04-29 03:58 51.39080 0.29395 7796 ft 199 kts 313°
2026-04-29 03:59 51.39945 0.27683 7550 ft 197 kts 313°
2026-04-29 03:59 51.40808 0.25973 7287 ft 196 kts 313°
2026-04-29 03:59 51.41666 0.24272 7052 ft 196 kts 313°
2026-04-29 03:59 51.42518 0.22576 6785 ft 196 kts 312°
2026-04-29 04:00 51.43368 0.20880 6531 ft 194 kts 313°
2026-04-29 04:00 51.44223 0.19174 6169 ft 200 kts 313°
2026-04-29 04:00 51.45099 0.17431 5742 ft 201 kts 314°
2026-04-29 04:00 51.45967 0.15698 5430 ft 196 kts 314°
2026-04-29 04:01 51.46815 0.14004 5153 ft 195 kts 314°
2026-04-29 04:01 51.47663 0.12309 4872 ft 194 kts 315°
2026-04-29 04:01 51.48500 0.10631 4608 ft 193 kts 315°
2026-04-29 04:01 51.49336 0.08956 4335 ft 191 kts 315°
2026-04-29 04:02 51.50165 0.07297 4071 ft 190 kts 316°
2026-04-29 04:02 51.50969 0.05616 3807 ft 190 kts 313°
2026-04-29 04:02 51.51729 0.03890 3540 ft 189 kts 312°
2026-04-29 04:02 51.52483 0.02138 3264 ft 188 kts 313°
2026-04-29 04:03 51.53212 0.00447 3004 ft 186 kts 313°
2026-04-29 04:03 51.53948 -0.01255 2789 ft 185 kts 313°
2026-04-29 04:03 51.54682 -0.02952 2529 ft 184 kts 314°
2026-04-29 04:03 51.55403 -0.04616 2281 ft 178 kts 315°
2026-04-29 04:04 51.56083 -0.06218 2121 ft 172 kts 313°
2026-04-29 04:04 51.56449 -0.08085 2108 ft 181 kts 277°
2026-04-29 04:04 51.56255 -0.10065 2108 ft 179 kts 243°
2026-04-29 04:04 51.55569 -0.11647 2108 ft 168 kts 212°
2026-04-29 04:05 51.54613 -0.12569 2017 ft 155 kts 185°
2026-04-29 04:05 51.53605 -0.12816 2015 ft 140 kts 161°
2026-04-29 04:05 51.52728 -0.12470 2017 ft 123 kts 137°
2026-04-29 04:05 51.52072 -0.11675 2022 ft 118 kts 119°
2026-04-29 04:06 51.51629 -0.10547 2024 ft 124 kts 109°
2026-04-29 04:06 51.51227 -0.09302 2016 ft 125 kts 105°
2026-04-29 04:06 51.50984 -0.07961 2014 ft 126 kts 92°
2026-04-29 04:06 51.50916 -0.06539 2017 ft 129 kts 91°
2026-04-29 04:07 51.50857 -0.05100 2017 ft 129 kts 90°
2026-04-29 04:07 51.50810 -0.03652 1885 ft 131 kts 90°
2026-04-29 04:07 51.50764 -0.02194 1530 ft 131 kts 89°
2026-04-29 04:07 51.50718 -0.00746 1236 ft 128 kts 88°
2026-04-29 04:08 51.50674 0.00673 861 ft 129 kts 89°
2026-04-29 04:08 51.50624 0.02116 516 ft 129 kts 88°
2026-04-29 04:08 51.50586 0.03562 220 ft 128 kts 89°
2026-04-29 04:08 51.50541 0.04966 28 ft 118 kts 90°
2026-04-29 04:09 51.50509 0.05906 26 ft 30 kts 93°
2026-04-29 04:09 51.50473 0.06039 26 ft 12 kts 198°
2026-04-29 04:09 51.50445 0.06001 26 ft 0 kts 232°
2026-04-29 04:10 51.50443 0.05999 26 ft 2 kts 231°
2026-04-29 04:10 51.50429 0.05962 26 ft 6 kts 248°
2026-04-29 04:10 51.50432 0.05885 26 ft 9 kts 264°
2026-04-29 04:10 51.50428 0.05769 26 ft 12 kts 269°
2026-04-29 04:11 51.50435 0.05620 26 ft 13 kts 272°
2026-04-29 04:11 51.50439 0.05481 26 ft 11 kts 273°
2026-04-29 04:11 51.50445 0.05400 26 ft 5 kts 280°
2026-04-29 04:11 51.50427 0.05363 29 ft 6 kts 186°
2026-04-29 04:12 51.50402 0.05364 26 ft 0 kts 180°